Home > Weather > Theni > Past weeks

Flag for India Past Weather in Theni, Tamil Nadu, India — Yesterday and Last 2 Weeks

Now
91 °F

Scattered clouds.


Feels Like: 100 °F
Forecast: 75 / 95 °F
Wind: 13 mph from South

Location: Coimbatore / Peelamedu

Current Time: May 29, 2016 at 3:07:59 PM

Latest Report: May 29, 2016 at 2:30 PM


Visibility: 4 mi

Pressure: 29.80 "Hg

Humidity: 56%

Dew Point: 73 °F

Location of TheniLocation

Past Weather in Theni — Graph

°F

Theni Temperature Yesterday

Maximum temperature yesterday: 91 °F (at 1:30 PM)
Minimum temperature yesterday: 75 °F (at 4:30 AM)
Average temperature yesterday: 82 °F

High & Low Weather Summary for the Past Weeks

 TemperatureHumidityPressure
High97 °F (May 14, 2:30 PM)100% (May 14, 7:30 PM)30.09 "Hg (May 14, 7:30 PM)
Low72 °F (May 15, 6:30 AM)42% (May 22, 3:00 PM)29.65 "Hg (May 17, 3:30 PM)
Average83 °F75%29.80 "Hg
* Reported May 14 1:30 PM — May 29 2:00 PM, Theni, Weather by CustomWeather, © 2016

Note: Actual official high and low records may vary slightly from our data, if they occured in-between our weather recording intervals... More about our weather records

Advertising

Theni Weather History for the Previous 24 Hours

Scroll right to see more
 ConditionsComfort  
Time TempWeatherWind HumidityBarometerVisibility
2:00 PM
Sun, May 29
90 °FScattered clouds.13 mph59%29.83 "Hg4 mi
1:30 PM90 °FScattered clouds.12 mph59%29.83 "Hg4 mi
1:00 PM88 °FScattered clouds.8 mph62%29.86 "Hg4 mi
12:30 PM88 °FBroken clouds.8 mph62%29.86 "Hg4 mi
12:00 PM88 °FScattered clouds.6 mph66%29.86 "Hg4 mi
11:30 AM88 °FScattered clouds.5 mph66%29.89 "Hg4 mi
11:00 AM86 °FScattered clouds.6 mph70%29.89 "Hg4 mi
10:30 AM86 °FScattered clouds.3 mph70%29.89 "Hg4 mi
10:00 AM84 °FBroken clouds.3 mph74%29.92 "Hg3 mi
9:30 AM82 °FBroken clouds.3 mph74%29.92 "Hg3 mi
9:00 AM79 °FFog.3 mph84%29.89 "Hg2 mi
8:30 AM79 °FFog.No wind84%29.89 "Hg2 mi
8:00 AM77 °FFog.No wind89%29.89 "Hg2 mi
7:30 AM75 °FFog.No wind94%29.89 "Hg2 mi
7:00 AM73 °FFog.3 mph100%29.89 "Hg2 mi
6:30 AM73 °FFog.No wind100%29.89 "Hg2 mi
6:00 AM73 °FFog.5 mph100%29.86 "Hg2 mi
5:30 AM73 °FFog.N/A100%29.86 "Hg2 mi
5:00 AM75 °FFog.No wind89%29.86 "Hg2 mi
4:30 AM75 °FFog.5 mph89%29.83 "Hg2 mi
4:00 AM75 °FFog.No wind89%29.86 "Hg2 mi
3:30 AM75 °FFog.5 mph89%29.83 "Hg2 mi
3:00 AM75 °FFog.7 mph89%29.83 "Hg2 mi
2:30 AM75 °FFog.No wind94%29.83 "Hg2 mi
1:30 AM75 °FFog.6 mph89%29.83 "Hg2 mi
12:30 AM75 °FFog.7 mph89%29.86 "Hg2 mi
11:30 PM
Sat, May 28
75 °FFog.No wind94%29.86 "Hg2 mi
11:00 PM77 °FFog.No wind89%29.89 "Hg2 mi
10:30 PM77 °FFog.No wind89%29.89 "Hg2 mi
10:00 PM77 °FFog.No wind89%29.89 "Hg2 mi
9:30 PM77 °FPartly cloudy.6 mph89%29.86 "Hg2 mi
9:00 PM77 °FThunderstorms. Partly cloudy.5 mph89%29.86 "Hg2 mi
8:30 PM77 °FThunderstorms. Partly cloudy.7 mph89%29.86 "Hg2 mi
8:00 PM79 °FThunderstorms. Partly cloudy.5 mph79%29.86 "Hg2 mi
7:30 PM79 °FThunderstorms. Partly cloudy.5 mph79%29.83 "Hg2 mi
7:00 PM81 °FThunderstorms. Broken clouds.9 mph74%29.83 "Hg2 mi
6:00 PM84 °FThunderstorms. Broken clouds.9 mph70%29.80 "Hg2 mi
5:30 PM86 °FBroken clouds.9 mph66%29.80 "Hg2 mi
5:00 PM86 °FThunderstorms. Broken clouds.14 mph66%29.77 "Hg2 mi
4:30 PM86 °FThunderstorms. Scattered clouds.10 mph70%29.80 "Hg2 mi
4:00 PM84 °FThunderstorms. Scattered clouds.7 mph74%29.77 "Hg2 mi
3:30 PM81 °FScattered clouds.9 mph84%29.77 "Hg2 mi
3:00 PM90 °FScattered clouds.7 mph55%29.80 "Hg4 mi
Weather by CustomWeather, © 2016

See weather overviewHow to use our weather pages